Weather in Kozlovskaya

Russia / Arkhangel'skaya Oblast'     61°06′11″N   42°50′33″E
temp.,
°C
wind,
m/s
gust,
m/s
humid.,
%
clouds,
%
prec.,
mm/h
press.,
hPa
HPBL,
m
28 november, sun
sun2800:00−4ene4996100 1.2 1006392
03:00−3ene4997100 3.9 1003363
06:00−2ene2798100 2.8 1000325
09:00−1ene1499100 4.3 1000212
12:00−1n1298100 1.1 1000188
15:00−2n2299100 1.8 100088
18:00−3n2398100 0.9 1000100
21:00−4nw2298100 3.1 1000215
29 november, mon
mon2900:00−5nw249697 1.9 1003203
03:00−8w269696 2.3 1006200
06:00−12wsw1399100 0.1 100935
09:00−14wnw1199100 0.1 101234
12:00−11n129463 0.0 1013135
15:00−14nne219865 0.0 101332
18:00−14ne2696100 0.0 1013153
21:00−14ne399694 0.0 1010212
30 november, tue
tue3000:00−13ne41194100 0.0 1007283
03:00−11ne41493100 0.1 1002394
06:00−9ne51494100 0.4 997449
09:00−9ene51594100 1.8 992531
12:00−7ene51394100 1.3 987503
15:00−7ne51395100 2.0 982525
18:00−7ne51295100 1.9 979508
21:00−6nne41095100 5.1 976433
1 december, wed
wed100:00−6nne3796100 2.3 976332
03:00−6n2496100 3.5 977203
06:00−7nw1397100 0.4 978125
09:00−7w2396100 1.0 981171
12:00−7ssw2496100 0.7 983298
15:00−7sw2696100 1.8 984410
18:00−7ssw2596100 0.9 986368
21:00−8sw1497100 1.9 986268
2 december, thu
thu200:00−8wsw259699 0.8 986255
03:00−9wsw279593 1.4 987423
06:00−9sw389598 0.4 988411
09:00−11wsw4119488 0.4 989354
12:00−10wsw41192100 0.1 991479
15:00−11wsw4119186 0.1 992417
18:00−12sw4119380 0.0 994359
21:00−14sw3109566 0.0 996262